Siga o Apolo11 no Facebook   Siga o Apolo11 no Twiiter
Ciência, Espaço e Tecnologia




Elementos Keplerianos formato Two Line

Para que um programa de rastreio possa saber a localização exata de qualquer satélite no espaço e assim poder rastreá-lo corretamente, é necessário que ele seja carregado com algumas informações.

Estas informações são chamadas de Elementos Orbitais ou Elementos Keplerianos e consistem em 2 linhas com dezenas de números. Esses números nada mais são que os parâmetros orbitais do satélite, tais como altitude, atitude, excentricidade da órbita, número de órbitas por dia, etc.

Com base nestas informações o programa é capaz de determinar com bastante exatidão a posição de qualquer satélite no espaço e nos informar em qual horário este estará dentro do alcance de nossa estação. Para que isso seja feito com precisão é necessário que os dados estejam sempre bem atualizadas.

Devido aos parâmetros orbitais serem descritos em 2 linhas, estes formato é também conhecido internacionalmente por 2line (leia-se Two Line”).

Para atualizar seu programa de rastreio basta copiar os dados disponibilizados e fornece-los ao programa. Nossos elementos orbitais são atualizados diariamente.

NOAATodos os satélites ambientais da série NOAA
30 DiasSatélites lançados nos últimos 30 dias
ISSSatélites e foguetes relacionados à Estação Espacial Internacional
HAMSatélites construídos por radiomadores
CUBESatélites tipo cubo, com 10 centímetros de lado
METEOSatélites voltados à previsão do tempo
EDUSatélites construídos e operados por universidades
VIS100 satélites mais brilhantes que podem ser vistos a olho nú



Satélites série NOAA
NOAA 1 [-]              
1 04793U 70106A   23343.17153483 -.00000030  00000+0  84465-4 0  9998
2 04793 101.4795  36.6536 0031316 350.7683  15.1430 12.54021935425723
NOAA 2 (ITOS-D) [-]     
1 06235U 72082A   23342.96030682 -.00000016  00000+0  19371-3 0  9994
2 06235 102.0066 334.8102 0004098 122.9797 265.1873 12.53171729339557
NOAA 3 [-]              
1 06920U 73086A   23342.57838925 -.00000018  00000+0  21295-3 0  9993
2 06920 102.2645 332.0061 0006742  18.3003  93.5434 12.40361190267637
NOAA 4 [-]              
1 07529U 74089A   23342.55646455 -.00000023  00000+0  14642-3 0  9990
2 07529 101.9743 330.1682 0008924 152.5770 319.3375 12.53174565244328
NOAA 5 [-]              
1 09057U 76077A   23342.58099157 -.00000019  00000+0  19972-3 0  9997
2 09057 102.1813 311.5530 0009411 228.1951 252.1833 12.37792598140440
TIROS N [-]             
1 11060U 78096A   23342.59378025  .00000172  00000+0  10308-3 0  9995
2 11060  98.5612  24.8938 0011008  35.0233 325.1665 14.18688488548282
NOAA 6 [-]              
1 11416U 79057A   23342.98198666  .00000315  00000+0  12799-3 0  9997
2 11416  98.6430 359.3363 0011325 104.6483 255.5958 14.34269154319051
NOAA 7 [-]              
1 12553U 81059A   23343.11498079  .00000050  00000+0  46755-4 0  9998
2 12553  98.9239  36.9989 0011760  24.6175 335.5558 14.17464873194465
NOAA 8 [-]              
1 13923U 83022A   23342.52581369  .00000178  00000+0  87620-4 0  9998
2 13923  98.7232 337.2458 0016091  74.4362 285.8595 14.29103885119651
NOAA 9 [-]              
1 15427U 84123A   23342.55176166  .00000154  00000+0  10063-3 0  9990
2 15427  99.1068 330.4283 0015799  79.3515  28.8558 14.16469093 12910
NOAA 10 [-]             
1 16969U 86073A   23342.51379619  .00000161  00000+0  81614-4 0  9991
2 16969  98.6229 325.4672 0012248 168.2002 301.2581 14.28480860937789
NOAA 11 [-]             
1 19531U 88089A   23342.51532924  .00000093  00000+0  68875-4 0  9996
2 19531  98.4915 308.8354 0012207  68.3879 291.8595 14.15461127817075
NOAA 12 [-]             
1 21263U 91032A   23342.96805485  .00000112  00000+0  64658-4 0  9994
2 21263  98.5447 333.5619 0013287 196.5083 163.5666 14.26208433693628
NOAA 13 [-]             
1 22739U 93050A   23342.48056900  .00000152  00000+0  10385-3 0  9993
2 22739  98.5797 302.5744 0008452 238.8261 121.2084 14.13098300563173
NOAA 14 [-]             
1 23455U 94089A   23342.94246464  .00000070  00000+0  57965-4 0  9994
2 23455  98.4269 344.6357 0008876 206.6845 153.3874 14.14328932492969
NOAA 15 [B]             
1 25338U 98030A   23343.10330541  .00000162  00000+0  85348-4 0  9993
2 25338  98.5897   9.0407 0010765 157.8547 202.3101 14.26450166330195
NOAA 16 [-]             
1 26536U 00055A   23342.89518614  .00000084  00000+0  66530-4 0  9993
2 26536  98.5606  25.9792 0011456  66.6697 293.5680 14.13501340493550
NOAA 17 [-]             
1 27453U 02032A   23342.87116082  .00000187  00000+0  98148-4 0  9994
2 27453  98.7390 288.8534 0012359 139.8796 220.3299 14.25435494115690
NOAA 18 [B]             
1 28654U 05018A   23343.18031425  .00000198  00000+0  12990-3 0  9999
2 28654  98.8953  56.5985 0013486 242.3906 117.5897 14.13074098956280
NOAA 19 [+]             
1 33591U 09005A   23343.10565399  .00000181  00000+0  12190-3 0  9993
2 33591  99.0773  31.6369 0014758 110.0337 250.2424 14.12882769764640
SUOMI NPP [+]           
1 37849U 11061A   23343.19097287  .00000093  00000+0  64694-4 0  9992
2 37849  98.7224 279.0466 0001598  87.4246  16.3536 14.19563014627769
NOAA 20 [+]             
1 43013U 17073A   23343.13534689  .00000086  00000+0  61343-4 0  9997
2 43013  98.7303 278.9121 0001268  60.6232 299.5070 14.19548331313793
NOAA 21 (JPSS-2) [+]    
1 54234U 22150A   23342.87005535  .00000119  00000+0  77421-4 0  9990
2 54234  98.7338 278.1921 0000813  62.7232 297.4027 14.19543580 55834


IMAGENS DE SATÉLITES !    Clique e conheça nosso Vídeo Workshop de sensoriamento remoto e imagens meteorológicas.
Apolo11.com - Todos os direitos reservados - 2001 - 2023
Política de Privacidade

"Ainda que eu fale a língua dos homens e dos anjos, se não tiver amor, nada serei" - 1 Coríntios 13,1